Temp
-2 -2 -2 -2 -3 -3 -4 -4 -4 -4 -4 -4 -4 -4 -4 -4 -4 -5 -5 -5 -5 -5 -5 -6 -6 -6 -6 -6 -7 -7 -7 -7 -7 -7 -7 -7 -7 -8 -8 -9 -9 -10
-3 -3 -3 -4 -4 -4 -4 -4 -4 -4 -4 -4 -4 -4 -4 -4 -4 -5 -5 -5 -5 -5 -6 -6 -6 -7 -7 -7 -7 -7 -7 -7 -7 -7 -7 -7 -7 -7 -8 -9 -9 -9
-4 -4 -4 -4 -4 -4 -4 -4 -4 -4 -4 -4 -4 -4 -4 -4 -5 -5 -5 -5 -5 -6 -6 -6 -7 -7 -7 -7 -7 -7 -7 -7 -7 -7 -7 -7 -7 -7 -7 -8 -9 -9
-4 -4 -4 -4 -4 -5 -5 -5 -5 -5 -5 -5 -5 -5 -5 -5 -5 -5 -5 -5 -6 -6 -6 -7 -7 -7 -7 -7 -7 -7 -7 -7 -7 -7 -7 -7 -7 -7 -7 -8 -8 -9
-5 -5 -5 -5 -5 -5 -5 -5 -5 -5 -5 -5 -5 -5 -5 -5 -5 -5 -5 -6 -6 -6 -7 -7 -7 -7 -7 -7 -7 -7 -8 -8 -8 -8 -8 -7 -7 -7 -7 -7 -8 -8
-5 -5 -5 -5 -5 -5 -5 -5 -5 -5 -5 -5 -5 -5 -5 -5 -5 -5 -6 -7 -7 -7 -7 -7 -8 -8 -8 -8 -8 -8 -8 -8 -8 -8 -8 -8 -8 -7 -7 -7 -8 -8
-5 -5 -5 -5 -5 -5 -5 -5 -5 -5 -5 -5 -5 -5 -5 -5 -6 -6 -7 -7 -7 -8 -8 -8 -8 -8 -8 -8 -8 -8 -8 -8 -8 -8 -8 -8 -8 -8 -8 -8 -8 -8
-5 -5 -5 -5 -5 -5 -5 -5 -5 -5 -5 -6 -6 -6 -6 -6 -6 -7 -7 -7 -8 -8 -8 -8 -8 -8 -8 -8 -8 -8 -8 -8 -8 -8 -8 -8 -8 -8 -8 -8 -8 -8
-5 -5 -5 -5 -5 -5 -5 -5 -6 -6 -6 -6 -6 -7 -7 -7 -7 -7 -7 -7 -8 -8 -8 -8 -8 -8 -8 -8 -8 -8 -8 -8 -8 -8 -8 -8 -8 -8 -8 -8 -8 -9
-6 -6 -6 -6 -6 -6 -6 -6 -6 -6 -6 -6 -7 -7 -7 -7 -7 -7 -8 -8 -8 -8 -8 -8 -8 -8 -8 -8 -8 -8 -8 -8 -8 -8 -8 -8 -8 -8 -8 -8 -9 -9
-7 -7 -7 -7 -7 -7 -7 -7 -7 -7 -7 -7 -7 -8 -8 -8 -8 -8 -8 -8 -8 -8 -8 -8 -8 -8 -8 -8 -8 -8 -8 -8 -8 -8 -8 -8 -8 -8 -8 -9 -9 -9
-7 -7 -7 -7 -7 -7 -7 -7 -7 -7 -8 -8 -8 -8 -8 -8 -8 -8 -8 -8 -8 -8 -8 -8 -8 -8 -8 -8 -9 -9 -9 -9 -8 -8 -8 -8 -8 -9 -9 -9 -9 -9
-7 -7 -7 -7 -7 -8 -8 -8 -8 -8 -8 -8 -8 -8 -9 -9 -9 -9 -9 -9 -9 -9 -9 -9 -9 -9 -9 -9 -9 -9 -9 -9 -9 -9 -9 -9 -9 -9 -9 -9 -9 -9
-8 -8 -8 -8 -8 -8 -8 -8 -8 -8 -8 -9 -9 -9 -9 -9 -9 -9 -9 -9 -9 -9 -9 -9 -9 -9 -9 -9 -9 -9 -9 -9 -9 -9 -9 -9 -9 -9 -9 -9 -10 -10
-8 -8 -8 -8 -8 -8 -8 -8 -9 -9 -9 -9 -9 -9 -9 -9 -9 -9 -9 -9 -9 -9 -9 -9 -9 -9 -9 -9 -9 -9 -9 -10 -10 -10 -10 -10 -10 -10 -10 -10 -10 -10
-9 -9 -9 -9 -9 -9 -9 -9 -9 -9 -9 -9 -9 -9 -9 -10 -10 -10 -10 -10 -10 -10 -9 -9 -9 -9 -9 -9 -9 -9 -9 -10 -10 -10 -10 -10 -10 -10 -10 -10 -10 -10
-9 -9 -9 -9 -9 -9 -9 -9 -9 -9 -9 -9 -9 -10 -10 -10 -10 -10 -10 -10 -10 -10 -10 -10 -10 -10 -10 -10 -10 -10 -10 -10 -10 -10 -10 -10 -10 -10 -10 -10 -11 -11
-10 -10 -10 -10 -9 -9 -9 -9 -9 -10 -10 -10 -10 -10 -10 -10 -10 -10 -10 -10 -10 -10 -10 -10 -10 -10 -10 -10 -10 -10 -10 -10 -10 -10 -10 -10 -10 -10 -10 -11 -11 -11
-10 -10 -9 -9 -10 -10 -10 -10 -10 -10 -10 -10 -11 -11 -11 -11 -11 -11 -11 -11 -11 -11 -11 -11 -11 -11 -11 -11 -11 -10 -10 -10 -10 -10 -10 -10 -10 -10 -10 -11 -11 -11
-10 -10 -9 -9 -10 -10 -10 -10 -10 -10 -10 -11 -11 -11 -11 -11 -11 -11 -11 -11 -11 -11 -11 -11 -11 -11 -11 -11 -11 -11 -11 -11 -11 -11 -11 -10 -10 -10 -11 -11 -11 -11
-9 -9 -9 -10 -10 -10 -10 -11 -11 -11 -11 -11 -11 -11 -11 -11 -11 -11 -11 -11 -11 -11 -12 -12 -12 -11 -11 -11 -11 -11 -11 -11 -11 -11 -11 -11 -11 -11 -11 -11 -11 -12
-10 -10 -10 -10 -10 -10 -11 -11 -11 -12 -12 -12 -12 -12 -12 -12 -12 -12 -12 -12 -12 -12 -12 -12 -12 -12 -12 -11 -11 -11 -11 -11 -11 -11 -11 -11 -11 -11 -11 -11 -11 -12
-11 -11 -11 -11 -11 -11 -11 -12 -12 -12 -12 -12 -12 -12 -12 -12 -13 -12 -12 -12 -12 -12 -12 -12 -12 -12 -12 -12 -12 -12 -12 -12 -12 -12 -11 -11 -11 -11 -11 -11 -12 -12
-12 -12 -12 -12 -12 -12 -12 -13 -13 -13 -13 -13 -13 -13 -13 -13 -13 -13 -13 -13 -13 -13 -13 -13 -13 -13 -13 -13 -13 -13 -13 -12 -12 -12 -12 -12 -12 -11 -11 -12 -12 -12
-13 -13 -13 -13 -13 -13 -13 -13 -14 -14 -14 -14 -14 -14 -14 -14 -14 -14 -14 -14 -14 -14 -14 -14 -13 -13 -13 -13 -13 -13 -13 -13 -13 -13 -12 -12 -12 -12 -12 -12 -12 -12
-14 -14 -14 -14 -14 -14 -14 -14 -14 -14 -15 -15 -15 -15 -15 -15 -15 -15 -15 -15 -15 -15 -15 -14 -14 -14 -14 -14 -14 -14 -14 -14 -14 -13 -13 -13 -13 -12 -12 -12 -13 -13
Height
3009 3009 3009 3009 3010 3010 3011 3011 3011 3011 3012 3012 3012 3012 3012 3012 3012 3012 3011 3010 3009 3007 3006 3005 3004 3003 3002 3002 3001 3000 2999 2999 2998 2997 2996 2995 2994 2994 2994 2993 2993 2993
3005 3006 3006 3006 3007 3007 3007 3007 3007 3007 3007 3007 3007 3007 3007 3007 3007 3007 3006 3005 3003 3001 3000 2999 2998 2997 2996 2996 2995 2994 2994 2993 2992 2991 2990 2990 2989 2988 2988 2988 2987 2987
3002 3003 3003 3003 3003 3003 3003 3003 3002 3002 3002 3002 3002 3002 3001 3001 3001 3001 3001 2999 2997 2995 2994 2992 2991 2991 2990 2989 2989 2988 2987 2987 2986 2986 2985 2984 2983 2983 2983 2982 2982 2982
2999 2999 2999 2999 2999 2999 2999 2998 2997 2997 2996 2996 2996 2996 2995 2995 2995 2995 2994 2993 2991 2989 2987 2986 2985 2984 2983 2982 2982 2981 2981 2981 2980 2980 2979 2978 2978 2977 2977 2977 2976 2976
2996 2996 2995 2995 2995 2994 2994 2993 2993 2992 2991 2990 2990 2989 2989 2988 2988 2987 2987 2985 2984 2982 2981 2980 2979 2978 2977 2976 2975 2975 2974 2974 2974 2974 2973 2973 2972 2972 2971 2971 2970 2970
2992 2991 2991 2991 2990 2990 2989 2989 2988 2987 2986 2985 2984 2983 2982 2981 2980 2980 2979 2978 2977 2976 2974 2973 2972 2972 2971 2970 2969 2968 2968 2968 2967 2967 2967 2967 2966 2966 2965 2965 2965 2965
2988 2988 2987 2987 2986 2985 2984 2984 2983 2982 2980 2978 2977 2976 2974 2973 2972 2972 2971 2971 2970 2969 2968 2967 2966 2965 2964 2963 2962 2962 2961 2961 2961 2961 2961 2961 2960 2959 2959 2959 2959 2958
2984 2983 2983 2982 2981 2980 2979 2978 2977 2975 2973 2971 2969 2969 2967 2966 2965 2965 2964 2964 2963 2962 2961 2960 2959 2958 2958 2957 2956 2955 2955 2954 2954 2954 2954 2954 2953 2953 2953 2953 2952 2951
2978 2977 2976 2975 2974 2973 2972 2971 2969 2968 2966 2964 2963 2962 2960 2959 2958 2958 2957 2957 2956 2955 2954 2953 2952 2952 2951 2950 2949 2949 2948 2948 2947 2947 2947 2947 2947 2946 2946 2945 2945 2944
2973 2972 2970 2969 2968 2967 2965 2964 2962 2961 2960 2958 2957 2955 2954 2952 2951 2951 2950 2950 2949 2949 2948 2947 2946 2945 2944 2943 2942 2942 2941 2941 2941 2940 2940 2940 2940 2939 2938 2938 2937 2937
2968 2966 2965 2963 2962 2960 2959 2958 2956 2955 2953 2952 2950 2949 2947 2946 2945 2944 2943 2943 2942 2942 2941 2940 2939 2938 2937 2936 2935 2935 2934 2934 2934 2933 2933 2933 2932 2932 2931 2930 2930 2930
2962 2961 2959 2957 2956 2955 2953 2952 2950 2949 2948 2946 2945 2943 2942 2940 2939 2938 2937 2936 2936 2935 2934 2933 2932 2931 2930 2929 2929 2928 2928 2927 2927 2926 2926 2926 2925 2924 2923 2923 2923 2923
2957 2956 2954 2952 2950 2949 2947 2946 2944 2943 2942 2940 2939 2937 2936 2934 2933 2932 2931 2930 2929 2928 2928 2927 2926 2924 2923 2922 2922 2921 2921 2920 2920 2919 2919 2918 2918 2917 2916 2916 2915 2915
2951 2950 2948 2947 2945 2943 2941 2940 2939 2937 2936 2934 2933 2931 2930 2928 2927 2926 2924 2923 2922 2921 2921 2920 2918 2917 2916 2916 2915 2914 2913 2913 2912 2911 2911 2910 2910 2909 2909 2908 2908 2907
2945 2943 2942 2940 2939 2937 2936 2934 2933 2931 2929 2928 2926 2925 2924 2922 2921 2919 2917 2916 2915 2914 2913 2912 2911 2910 2909 2908 2908 2906 2906 2905 2904 2903 2902 2902 2901 2901 2900 2900 2899 2899
2938 2937 2935 2934 2932 2931 2929 2928 2926 2924 2923 2921 2920 2918 2917 2915 2914 2912 2910 2909 2908 2907 2906 2904 2903 2903 2902 2901 2900 2899 2898 2896 2895 2894 2893 2893 2892 2892 2891 2891 2891 2891
2932 2930 2928 2927 2925 2923 2922 2920 2919 2917 2915 2914 2913 2911 2910 2908 2906 2905 2903 2902 2900 2899 2898 2896 2896 2896 2895 2894 2892 2891 2890 2888 2887 2886 2885 2884 2883 2882 2882 2882 2882 2882
2924 2923 2921 2919 2917 2916 2914 2912 2911 2909 2907 2906 2905 2903 2902 2900 2898 2897 2896 2895 2892 2891 2890 2889 2888 2888 2886 2885 2884 2883 2882 2881 2879 2878 2877 2875 2874 2874 2873 2873 2873 2873
2916 2914 2913 2911 2909 2907 2906 2904 2902 2901 2899 2897 2895 2894 2892 2891 2890 2889 2887 2886 2884 2883 2882 2881 2880 2879 2878 2877 2876 2874 2873 2872 2871 2870 2869 2867 2866 2865 2864 2864 2864 2864
2907 2905 2903 2902 2900 2898 2896 2895 2893 2891 2890 2888 2886 2884 2882 2881 2880 2879 2878 2877 2875 2874 2873 2872 2872 2871 2869 2868 2867 2865 2864 2862 2862 2861 2860 2859 2858 2857 2856 2855 2855 2855
2897 2896 2894 2891 2889 2888 2886 2884 2883 2881 2880 2877 2875 2874 2873 2871 2870 2869 2868 2867 2866 2864 2863 2863 2863 2862 2860 2859 2857 2856 2854 2852 2852 2852 2851 2850 2849 2849 2848 2847 2847 2847
2888 2886 2884 2881 2879 2877 2875 2873 2872 2870 2869 2867 2865 2864 2863 2861 2860 2859 2858 2857 2856 2854 2853 2853 2854 2852 2850 2850 2848 2846 2844 2842 2841 2842 2841 2841 2840 2840 2839 2839 2838 2838
2877 2875 2873 2871 2869 2866 2864 2863 2861 2859 2858 2856 2854 2853 2852 2851 2849 2848 2847 2846 2845 2844 2843 2843 2844 2843 2840 2840 2839 2837 2834 2832 2831 2832 2832 2831 2831 2831 2830 2830 2829 2829
2868 2865 2863 2861 2859 2856 2854 2852 2850 2848 2847 2845 2843 2842 2842 2840 2839 2837 2837 2836 2835 2834 2833 2832 2833 2833 2830 2829 2829 2827 2824 2822 2821 2821 2821 2822 2822 2822 2821 2821 2820 2820
2858 2856 2853 2851 2849 2847 2844 2842 2840 2838 2836 2834 2832 2831 2830 2829 2828 2827 2826 2826 2824 2823 2823 2822 2822 2822 2821 2819 2818 2817 2814 2812 2811 2810 2811 2812 2812 2812 2812 2812 2811 2811
2848 2846 2844 2841 2839 2837 2835 2832 2830 2827 2825 2823 2822 2820 2819 2818 2817 2816 2815 2815 2814 2813 2812 2812 2811 2811 2811 2809 2808 2807 2805 2802 2801 2800 2801 2801 2801 2802 2802 2803 2802 2802
Wind_Speed
31 30 28 25 23 22 23 24 26 28 30 31 33 34 36 37 39 43 44 45 45 45 44 45 45 45 44 44 44 45 45 46 46 47 48 49 50 50 50 51 51 49
25 23 22 22 23 24 26 28 31 33 34 35 37 38 40 42 44 47 48 47 46 46 46 46 45 45 44 44 44 45 45 46 46 47 48 48 48 49 49 50 50 49
22 22 23 25 27 29 31 33 35 37 39 40 41 42 44 46 49 52 51 48 48 47 47 47 46 45 45 44 45 46 46 46 46 47 47 47 47 47 48 48 49 48
25 26 28 30 32 33 34 37 39 41 43 44 46 47 49 51 54 55 51 48 48 48 48 48 47 46 45 44 45 46 47 47 46 46 47 47 47 47 47 47 48 48
29 30 32 34 36 37 38 41 43 45 47 49 51 52 55 57 57 54 49 46 46 47 47 48 47 46 45 45 45 46 47 48 48 47 46 47 47 47 46 46 47 47
32 34 35 37 39 41 43 45 47 49 52 53 56 57 58 57 55 50 45 43 44 45 46 47 47 46 45 45 45 46 47 48 48 48 46 46 47 47 47 46 47 47
36 38 40 42 44 46 48 50 51 53 55 55 56 55 54 53 50 45 43 42 43 44 45 46 46 45 44 45 45 45 47 48 48 48 46 45 46 47 47 46 47 48
42 44 45 47 49 50 51 51 51 51 50 50 50 48 48 48 46 43 42 42 42 43 44 45 45 45 45 45 45 45 46 47 48 47 47 46 46 47 47 47 48 50
43 44 44 46 47 48 48 48 46 44 43 44 44 44 44 44 44 42 42 41 42 42 43 44 45 45 46 47 46 46 46 47 47 48 47 47 46 47 48 49 50 51
37 38 39 41 42 44 45 45 44 43 42 41 41 41 41 42 42 42 42 41 41 42 42 43 44 45 46 46 46 47 47 47 47 48 47 47 47 48 49 50 50 51
34 35 36 37 38 40 41 42 42 42 40 40 39 39 39 40 41 41 41 41 41 41 41 42 43 44 45 45 46 46 47 47 47 48 48 48 48 49 50 50 51 51
35 35 36 36 36 37 38 39 39 38 38 38 38 38 39 40 41 41 42 41 41 41 42 42 43 43 44 45 45 45 46 47 47 48 48 48 49 50 51 51 52 52
38 38 38 38 38 38 38 38 39 38 38 38 38 39 40 41 42 43 43 44 44 44 44 44 45 46 46 46 46 46 46 47 48 48 49 49 50 51 52 52 53 53
42 41 41 41 40 41 40 40 41 41 41 41 41 42 42 43 44 44 45 47 47 48 48 48 49 50 50 50 49 48 48 48 49 50 50 51 52 53 53 54 54 54
46 46 45 45 44 44 44 44 44 44 44 45 45 45 45 45 46 47 48 49 50 51 51 51 51 52 52 52 51 50 50 49 50 51 52 52 53 54 55 55 55 55
46 47 47 48 48 48 48 48 48 48 48 48 49 49 49 49 50 51 52 53 53 54 54 54 53 53 53 53 52 52 51 51 51 51 52 53 53 54 55 55 55 55
48 47 48 49 50 50 51 52 52 51 52 51 51 51 51 52 53 54 55 55 56 57 57 57 57 56 56 55 55 54 53 53 53 53 53 53 54 55 55 55 55 55
52 51 50 50 51 51 51 52 53 53 54 54 54 54 54 55 55 56 56 57 58 59 59 60 60 59 59 59 58 57 56 55 55 55 55 55 55 56 56 56 56 56
54 55 55 56 57 56 55 54 54 55 56 57 57 58 58 59 59 59 59 59 60 60 61 61 61 62 62 62 61 61 59 58 57 57 57 57 57 57 57 57 57 57
56 58 60 61 61 61 59 58 57 57 58 59 60 61 62 62 62 62 63 63 62 63 63 63 62 63 64 64 64 63 62 61 60 58 59 59 59 59 59 59 59 58
62 64 65 66 66 65 63 62 60 59 59 61 62 63 64 65 66 66 67 66 65 65 65 65 64 65 66 66 66 65 65 64 63 62 61 60 60 61 60 60 59 58
67 67 68 68 67 67 66 64 62 61 61 62 64 65 66 67 68 68 69 69 68 68 68 67 66 66 67 67 67 67 67 68 67 66 64 63 61 61 61 61 60 59
66 66 66 65 65 65 65 64 64 63 62 62 64 65 66 68 69 69 69 69 69 69 69 69 67 67 68 68 69 69 69 69 69 68 67 65 63 62 61 61 61 59
62 62 62 62 62 62 63 63 63 63 63 63 63 64 65 66 67 69 69 70 70 69 69 69 68 67 67 67 68 68 69 69 68 68 67 67 66 64 62 61 61 60
59 59 59 59 60 60 61 61 62 63 63 64 64 64 64 64 65 65 66 67 68 68 68 67 66 66 65 65 64 65 66 67 67 68 68 67 67 66 64 63 62 61
57 57 58 58 58 59 59 60 61 62 63 64 65 65 65 65 64 64 63 63 64 65 66 66 64 63 62 62 62 63 64 65 66 67 67 67 67 67 66 64 63 62
Wind_Direction
267 266 264 260 254 250 249 251 254 257 263 269 273 275 278 282 288 295 297 294 290 288 286 283 282 281 279 279 279 280 282 284 284 282 281 280 278 275 272 271 272 272
264 260 254 250 249 251 254 257 261 264 268 273 275 277 280 282 286 292 294 291 287 285 282 280 279 278 277 277 277 278 280 283 284 283 283 282 280 277 274 272 272 271
253 249 250 253 255 257 260 263 267 270 273 276 277 279 280 281 285 290 291 288 285 282 279 278 277 277 276 275 274 275 278 280 282 283 282 281 280 278 276 274 273 271
250 251 254 257 259 261 265 268 272 275 278 279 280 281 282 283 285 288 289 286 283 280 277 276 276 277 277 275 274 274 276 278 280 282 282 280 279 278 276 274 273 271
253 256 259 261 263 267 271 273 276 279 281 282 283 284 284 285 286 287 286 283 280 277 275 276 278 279 279 277 275 275 276 278 279 282 282 280 279 278 276 274 272 270
261 263 266 268 271 274 275 276 279 281 281 282 283 284 285 285 286 286 284 280 277 275 276 277 279 280 279 278 277 277 277 279 280 281 282 280 279 277 276 274 272 270
270 271 272 273 274 275 275 277 278 280 281 282 283 285 285 285 285 283 280 277 276 276 277 278 279 280 280 279 279 279 279 280 281 281 281 280 278 276 276 274 273 271
277 278 278 278 277 277 277 278 280 281 283 284 285 285 285 284 284 282 280 278 278 278 279 280 280 281 281 281 281 281 281 281 281 281 281 279 277 276 275 274 272 269
282 283 284 284 283 283 282 281 282 283 284 284 284 284 283 283 283 282 281 281 281 281 281 281 282 281 281 281 281 280 280 280 280 280 280 279 278 276 275 274 272 271
287 288 287 287 286 285 284 282 281 281 281 281 282 281 281 281 281 281 282 282 282 282 283 283 282 282 281 280 280 279 278 279 279 279 279 279 278 277 275 274 273 273
293 291 290 289 289 288 286 283 281 280 279 279 279 280 280 281 281 281 281 281 281 281 282 282 282 282 281 280 279 278 278 278 277 278 278 277 277 276 275 274 274 274
295 293 291 290 290 290 288 286 284 282 281 281 281 282 282 283 284 284 284 284 283 282 281 281 281 281 281 281 280 279 278 278 277 277 276 276 275 274 274 274 274 274
292 291 290 289 289 288 288 288 287 286 285 284 284 284 284 285 286 287 287 286 285 284 283 283 282 281 280 280 280 279 279 278 278 277 276 275 275 274 274 273 273 273
290 289 288 287 286 285 286 287 287 288 287 286 285 285 285 285 285 285 286 285 285 285 285 285 284 283 282 280 279 278 277 277 276 275 275 274 273 273 273 272 272 272
288 287 288 288 287 285 285 285 285 285 285 285 284 284 285 285 285 285 284 284 285 286 286 286 286 285 284 283 281 279 277 276 275 274 273 273 272 272 271 271 271 271
283 284 286 287 288 288 287 286 285 284 283 283 283 283 283 284 284 284 284 284 285 285 286 286 286 286 286 285 283 281 278 276 275 274 273 273 272 272 271 271 270 270
280 281 283 286 287 287 287 286 286 284 283 283 282 282 281 281 282 282 283 284 284 284 285 285 285 286 285 284 283 281 279 277 275 274 273 272 272 272 271 271 270 270
279 280 283 286 288 288 287 285 284 283 281 280 280 280 279 279 279 280 280 281 282 282 282 283 284 284 284 283 282 281 279 277 275 274 272 271 271 271 271 271 270 270
281 281 283 286 288 288 287 285 283 281 280 278 277 276 276 277 277 277 277 278 278 279 280 280 281 282 281 281 280 279 278 276 275 273 272 271 270 270 270 270 269 269
286 285 285 287 288 288 287 285 283 280 278 276 275 274 274 275 274 274 274 275 276 277 277 278 278 279 279 279 278 277 276 274 273 272 271 270 269 268 268 268 269 269
289 288 288 288 288 287 287 285 283 280 277 275 273 273 272 272 273 272 272 272 273 274 275 275 276 276 276 276 275 275 274 273 272 271 269 268 268 268 267 268 268 268
289 288 288 287 287 286 286 285 283 281 278 275 273 272 271 271 271 271 271 271 271 272 273 273 274 274 274 274 274 274 273 272 271 270 269 268 267 266 266 267 267 267
289 289 288 288 287 287 286 285 284 282 280 277 275 273 272 271 271 270 270 271 271 271 272 272 273 273 273 273 272 272 271 271 270 270 268 268 267 265 265 265 266 266
290 289 289 288 287 287 286 285 284 283 281 280 278 276 275 273 273 272 271 271 271 272 272 272 272 272 273 272 272 271 270 270 270 270 269 268 267 265 264 264 264 265
291 290 290 289 288 287 286 285 284 283 283 282 280 280 278 277 276 275 274 273 272 272 272 273 273 273 272 272 271 271 271 271 271 270 270 269 268 266 265 263 263 263
294 293 292 291 289 288 287 286 285 284 283 282 282 281 280 279 279 278 277 275 274 273 272 272 273 273 273 272 271 271 272 272 272 271 271 269 268 266 265 263 262 262